Regional Weather Roundup
Issued by NWS Upton, NY

Current Version | Previous Version | Text Only | Print | Product List | Glossary On
Versions: 1 2 3 4 5 6 7 8 9 10 11 12 13 14 15 16 17 18 19 20 21 22 23 24 25 26 27 28 29 30 31 32 33 34 35 36 37 38 39 40 41 42 43 44 45 46 47 48 49 50
000 ASUS41 KOKX 241705 RWROKX REGIONAL WEATHER ROUNDUP NATIONAL WEATHER SERVICE NEW YORK NY 1200 PM EST SAT JAN 24 2015 NOTE: "FAIR" INDICATES FEW OR NO CLOUDS BELOW 12,000 FEET WITH NO SIGNIFICANT WEATHER AND/OR OBSTRUCTIONS TO VISIBILITY. NYZ071-072-176-178-NJZ106-104-241800- NEW YORK CITY METRO AREA CITY SKY/WX TMP DP RH WIND PRES REMARKS CENTRAL PARK CLOUDY 35 32 88 VRB5 29.45F FOG WCI 31 LAGUARDIA APRT DRIZZLE 35 33 92 N12 29.43F FOG WCI 27 KENNEDY INTL DRIZZLE 35 32 88 N13G25 29.43F FOG WCI 26 NEWARK/LIBERTY DRIZZLE 35 33 92 N13 29.44F FOG WCI 26 BRNX BOT. GARD N/A 34 34 100 W6 29.44F WCI 29 TETERBORO LGT RAIN 36 32 87 N9 29.43F FOG WCI 29 $$ NYZ177-179-078>081-241800- LONG ISLAND NEW YORK CITY SKY/WX TMP DP RH WIND PRES REMARKS FARMINGDALE CLOUDY 35 33 92 N14G23 29.37F FOG WCI 26 ISLIP LGT RAIN 34 32 92 N16 29.34F FOG WCI 24 SHIRLEY LGT RAIN 35 33 92 N12 29.35F FOG WCI 27 WESTHAMPTON LGT RAIN 35 33 92 N14 29.37F FOG WCI 26 MONTAUK POINT N/A 37 35 92 N15G29 29.34F WCI 28 $$ NYZ052-065-067-241800- HUDSON VALLEY CITY SKY/WX TMP DP RH WIND PRES REMARKS WHITE PLAINS RAIN 34 32 92 N8 29.39F FOG WCI 27 NEWBURGH NOT AVBL MONTGOMERY LGT SNOW 33 31 92 N8 29.44F FOG WCI 26 POUGHKEEPSIE LGT SNOW 33 30 88 NW9 29.46F VSB 1 WCI 25 ALBANY LGT SNOW 30 25 81 N3 29.51F $$ NJZ001-105-106-008-010-013-015-019>022-104-241800- NEW JERSEY CITY SKY/WX TMP DP RH WIND PRES REMARKS NEWARK/LIBERTY DRIZZLE 35 33 92 N13 29.44F FOG WCI 26 TETERBORO LGT RAIN 36 32 87 N9 29.43F FOG WCI 29 CALDWELL CLOUDY 34 31 88 CALM 29.45F FOG MORRISTOWN CLOUDY 36 34 93 NE3 29.46F FOG SOMERVILLE CLOUDY 36 33 89 NW5 29.43F FOG WCI 32 SUSSEX LGT SNOW 32 29 88 E3 29.45F FOG ANDOVER N/A 32 30 92 VRB6 29.44F WCI 26 TRENTON CLOUDY 35 33 92 N5 29.43F FOG WCI 31 MILLVILLE LGT RAIN N/A N/A N/A N14G23 29.38F ATLANTIC CITY CLOUDY 36 35 96 N14 29.37F FOG WCI 27 WRIGHTSTOWN MIX PCPN 32 32 100 N12 29.39F FOG WCI 23 TOMS RIVER CLOUDY 36 34 93 N10 29.40F WCI 28 BELMAR CLOUDY 36 28 75 NW12 29.40S WCI 27 $$ PAZ047>061-062-071-241800- EASTERN PENNSYLVANIA CITY SKY/WX TMP DP RH WIND PRES REMARKS PHILADELPHIA CLOUDY 36 33 89 N9 29.44F FOG WCI 29 ALLENTOWN LGT SNOW 35 31 85 NW3 29.46F FOG SCRANTON LGT SNOW 33 29 85 CALM 29.47F VSB 1 $$ CTZ002-004>006-009-010-012-RIZ004-006-007-MAZ004-011-015-241800- SOUTHERN NEW ENGLAND IN CT CITY SKY/WX TMP DP RH WIND PRES REMARKS BRADLEY INTL LGTSLEET 33 29 85 N13 29.43F VSB 1 WCI 24 HARTFORD MIX PCPN 33 31 92 N9 29.43F VSB 1 WCI 25 DANBURY LGT RAIN 33 29 85 NE6 29.43F VSB 1 WCI 28 WTRBRY/OXFORD NOT AVBL BRIDGEPORT CLOUDY 35 33 92 N13 29.40F FOG WCI 26 MERIDEN LGT RAIN 33 30 88 N10 29.41F FOG WCI 25 NEW HAVEN CLOUDY 34 32 92 N14 29.39F FOG WCI 25 CHESTER LGT RAIN 34 34 100 N9G17 29.37F WCI 26 GROTON MIX PCPN 34 34 100 N14 29.36F FOG WCI 25 WILLIMANTIC LGT RAIN 34 32 92 N7 29.41F FOG WCI 28 IN RI CITY SKY/WX TMP DP RH WIND PRES REMARKS PROVIDENCE LGT RAIN 33 31 92 N14 29.41F VSB 1 WCI 23 BLOCK ISLAND CLOUDY 36 32 87 NE17G30 29.32F WCI 25 WESTERLY LGT RAIN 35 33 92 N13G18 29.37F FOG WCI 26 IN MA CITY SKY/WX TMP DP RH WIND PRES REMARKS BOSTON SNOW 33 32 96 N13 29.48F VSB 1/4 WCI 24 WORCESTER LGT SNOW 29 28 96 NE10 29.41F VSB 1 WCI 20 WESTFIELD LGT SNOW 31 28 89 N10 29.43F FOG WCI 22 PROVINCETOWN CLOUDY 37 36 93 NE16G24 29.43F WCI 28 NANTUCKET HVY RAIN 42 40 92 N17 29.34F FOG $$ ANZ330-335-338-340-345-350-353-355-241800- COASTAL MARINE OBSERVATIONS STATION/POSITION TIME SKY/WX TEMP WIND PRES VSBY WAVE AIR SEA DIR/SP/G HT/PER (UTC) (F) (DEG/KT/KT) (MB) (MI) (FT/S) NY HARB ENTRANCE 1700 37 42 350/ 21/ 23 994.5 4/ 5 4S FIRE IS 1700 39 N/A 3/ 5 20S FIRE ISLAND 1600 41 995.0 6/ 6 23SW MTP 1700 N/A 7/ 5 HUDSON CANYON NOT AVBL EXECUTION ROCKS 1700 35 35 360/ 12/ 14 N/A WESTERN LI SOUND 1700 35 360/ 12/ 14 N/A 1/ 3 CENTRAL LI SOUND 1600 35 37 30/ 16/ 19 N/A 2/ 2 EASTERN LI SOUND NOT AVBL ROBBINS REEF 1700 34 340/ 10/ 13 995.6 $$ >>>>>>>>>>>>>>>>>>>>>>>>>>>> KEY <<<<<<<<<<<<<<<<<<<<<<<<<<< > < > SKY/WX - SKY CONDITION/PRESENT WEATHER < > TMP - TEMPERATURE IN FAHRENHEIT < > DP - DEWPOINT IN FAHRENHEIT < > RH - RELATIVE HUMIDITY IN PERCENT < > WIND - DIRECTION AND SPEED IN MPH < > PRES - MEAN SEA LEVEL PRESSURE IN INCHES OF HG < > WCI - WIND CHILL INDEX < > VSB - VISIBILITY IN MILES < > HX - HEAT INDEX < > TC - TEMPERATURE IN CELSIUS < > VRB - VARIABLE WIND DIRECTION < > < >>>>>>>>>>>>>>>>>>>>>>>>>>>> KEY <<<<<<<<<<<<<<<<<<<<<<<<<<<

USA.gov is the U.S. government's official web portal to all federal, state and local government web resources and services.